K0JSC-13 Weather Reports


Display with metric or nautical units.
time (UTC)temp
F
wind
direction
speed
MPH
gust
MPH
rain 1hr
in
rain 24hr
in
rain mn
in
humidity
%
barometer
mb
20260507081803 38 294 5.0 12.0 0.00 0.56 0.00 72 1005.1
20260507080903 38 298 4.0 10.0 0.00 0.56 0.00 73 1005.1
20260507080004 38 299 3.0 8.0 0.00 0.56 0.00 72 1005.2
20260507075403 38 301 3.0 8.0 0.00 0.56 0.00 72 1005.3
20260507074503 39 285 3.0 12.0 0.00 0.56 0.00 72 1005.3
20260507073604 38 292 3.0 10.0 0.00 0.56 0.00 72 1005.3
20260507072703 38 301 4.0 11.0 0.00 0.56 0.00 72 1005.3
20260507071803 39 309 6.0 14.0 0.00 0.57 0.00 73 1005.3
20260507070903 39 310 9.0 17.0 0.00 0.57 0.00 73 1005.4
20260507070007 38 308 9.0 16.0 0.00 0.57 0.00 74 1005.4
20260507065403 39 310 9.0 16.0 0.00 0.57 0.00 74 1005.4
20260507064504 38 309 9.0 14.0 0.00 0.57 0.00 75 1005.5
20260507063603 38 308 9.0 16.0 0.00 0.57 0.00 76 1005.5
20260507062703 37 317 7.0 13.0 0.00 0.57 0.00 80 1005.5
20260507061803 35 322 4.0 12.0 0.00 0.57 0.00 83 1005.5
20260507060903 35 324 5.0 10.0 0.00 0.57 0.00 84 1005.4
20260507060219 34 321 3.0 9.0 0.00 0.57 0.00 85 1005.4
20260507055403 34 326 3.0 5.0 0.00 0.58 0.57 85 1005.3
20260507054503 35 331 3.0 6.0 0.00 0.58 0.57 85 1005.2
20260507053818 35 328 4.0 6.0 0.00 0.58 0.57 85 1005.2
20260507052703 35 325 4.0 9.0 0.00 0.58 0.57 86 1005.2
20260507052016 34 327 4.0 8.0 0.00 0.58 0.57 87 1005.2
20260507051118 34 313 3.0 8.0 0.00 0.58 0.57 87 1005.2
20260507050217 34 325 2.0 5.0 0.00 0.58 0.57 87 1005.2
20260507045617 34 327 2.0 5.0 0.00 0.59 0.57 87 1005.3
20260507044718 34 326 2.0 5.0 0.00 0.59 0.57 86 1005.2
20260507043817 35 316 3.0 4.0 0.00 0.59 0.57 86 1005.2
20260507042703 35 315 3.0 4.0 0.00 0.59 0.57 86 1005.1
20260507041803 35 315 3.0 5.0 0.00 0.59 0.57 87 1005.1
20260507040904 35 305 4.0 8.0 0.00 0.59 0.57 87 1005.0
20260507040217 35 304 3.0 8.0 0.00 0.59 0.57 88 1005.0
20260507035403 34 315 2.0 7.0 0.00 0.60 0.57 87 1005.0
20260507034503 34 333 1.0 4.0 0.00 0.60 0.57 87 1005.0
20260507033603 35 335 1.0 4.0 0.00 0.60 0.57 86 1005.0
20260507032916 35 333 0.0 2.0 0.00 0.60 0.57 85 1004.9
20260507031803 35 333 0.0 2.0 0.00 0.60 0.57 84 1004.8
20260507030903 36 333 0.0 2.0 0.00 0.60 0.57 83 1004.7
20260507030005 36 333 1.0 3.0 0.00 0.61 0.57 83 1004.6
20260507025403 37 333 2.0 4.0 0.00 0.61 0.57 82 1004.6
20260507024503 37 333 2.0 4.0 0.00 0.61 0.57 81 1004.5
20260507023603 38 334 1.0 3.0 0.00 0.61 0.57 80 1004.5
20260507022703 38 82 0.0 1.0 0.00 0.61 0.57 81 1004.4
20260507021803 38 75 0.0 2.0 0.00 0.61 0.57 79 1004.3
20260507020903 39 74 0.0 1.0 0.00 0.61 0.57 77 1004.4
20260507020004 41 71 0.0 4.0 0.00 0.61 0.57 73 1004.4
20260507015404 42 0 0.0 0.0 0.00 0.61 0.57 69 1004.4
20260507014503 44 0 0.0 0.0 0.00 0.61 0.57 63 1004.5
20260507013818 46 0 0.0 0.0 0.00 0.61 0.57 62 1004.5
20260507012703 47 71 0.0 1.0 0.00 0.61 0.57 61 1004.6
20260507012017 48 119 0.0 1.0 0.00 0.61 0.57 60 1004.5
20260507010903 47 121 0.0 1.0 0.00 0.62 0.57 63 1004.5
20260507010003 47 94 0.0 2.0 0.00 0.62 0.57 64 1004.4
20260507005617 46 94 0.0 2.0 0.00 0.62 0.57 63 1004.4
20260507004503 46 91 0.0 2.0 0.00 0.62 0.57 63 1004.6
20260507003603 46 0 0.0 0.0 0.00 0.62 0.57 63 1004.6
20260507002703 43 62 0.0 3.0 0.00 0.62 0.57 69 1004.7
20260507001803 42 59 1.0 4.0 0.00 0.62 0.57 72 1004.6
20260507001118 42 59 3.0 5.0 0.00 0.62 0.57 73 1004.7
20260507000003 42 91 2.0 4.0 0.00 0.62 0.57 71 1004.7
20260506235404 43 84 3.0 8.0 0.00 0.62 0.57 71 1004.6
20260506234718 43 84 4.0 7.0 0.00 0.62 0.57 71 1004.6
20260506233818 42 91 3.0 6.0 0.00 0.63 0.57 73 1004.5
20260506232917 42 85 3.0 7.0 0.01 0.63 0.57 72 1004.6
20260506231803 43 91 3.0 8.0 0.02 0.63 0.57 69 1004.6
20260506230903 43 53 4.0 9.0 0.03 0.64 0.57 72 1004.4
20260506230003 42 349 4.0 6.0 0.04 0.64 0.57 72 1004.4
20260506225616 42 10 3.0 8.0 0.04 0.64 0.57 74 1004.4
20260506224503 42 106 0.0 1.0 0.06 0.65 0.57 73 1004.3
20260506223603 44 226 1.0 3.0 0.09 0.65 0.57 68 1004.4
20260506222704 44 219 1.0 5.0 0.11 0.64 0.56 72 1004.5
20260506221803 43 191 2.0 5.0 0.12 0.63 0.55 71 1004.5
20260506220903 44 181 1.0 5.0 0.14 0.62 0.54 71 1004.4
20260506220216 44 349 0.0 3.0 0.16 0.61 0.53 64 1004.5
20260506215403 44 240 0.0 2.0 0.17 0.60 0.52 67 1004.7
20260506214503 45 229 0.0 4.0 0.17 0.59 0.51 70 1004.8
20260506213603 43 218 1.0 5.0 0.16 0.57 0.48 72 1005.1
20260506212704 42 223 1.0 4.0 0.15 0.54 0.45 71 1005.2
20260506211803 43 219 1.0 4.0 0.15 0.52 0.43 70 1005.2
20260506210903 43 233 0.0 3.0 0.14 0.49 0.40 71 1005.2
20260506210003 41 212 1.0 6.0 0.13 0.46 0.37 76 1005.1
20260506205403 40 216 1.0 6.0 0.12 0.44 0.35 76 1004.8
20260506204503 41 222 1.0 6.0 0.13 0.43 0.34 75 1005.0
20260506203603 41 170 0.0 2.0 0.13 0.41 0.32 77 1005.2
20260506202704 40 280 0.0 2.0 0.14 0.39 0.30 79 1004.9
20260506201803 40 320 0.0 3.0 0.15 0.37 0.28 79 1004.9
20260506200903 40 320 0.0 5.0 0.16 0.35 0.26 81 1004.7
20260506200003 39 17 0.0 2.0 0.15 0.33 0.24 85 1004.7
20260506195403 39 292 1.0 4.0 0.15 0.32 0.23 85 1004.8
20260506194503 39 302 1.0 4.0 0.14 0.30 0.21 85 1004.6
20260506193603 39 279 1.0 4.0 0.13 0.28 0.19 85 1004.6
20260506192917 39 294 1.0 6.0 0.12 0.26 0.17 86 1004.5
20260506191803 39 305 1.0 6.0 0.08 0.22 0.13 87 1004.6
20260506190904 39 288 2.0 8.0 0.05 0.19 0.10 88 1004.6
20260506190005 39 302 1.0 4.0 0.04 0.18 0.09 90 1004.6
20260506185617 38 301 1.0 6.0 0.03 0.17 0.08 90 1004.6
20260506184504 38 310 0.0 3.0 0.02 0.16 0.07 91 1004.8
20260506183604 37 305 0.0 4.0 0.01 0.15 0.06 93 1004.7
20260506182703 36 299 1.0 6.0 0.00 0.14 0.05 93 1004.9
20260506181803 35 295 1.0 4.0 0.00 0.14 0.05 94 1004.8
20260506180903 34 295 1.0 4.0 0.00 0.14 0.05 93 1004.9
20260506180004 34 309 0.0 2.0 0.00 0.14 0.05 93 1004.7
20260506175404 34 301 0.0 2.0 0.00 0.14 0.05 93 1004.7
20260506174503 34 249 0.0 3.0 0.00 0.14 0.05 93 1004.7
20260506173603 34 253 0.0 2.0 0.00 0.14 0.05 93 1004.6
20260506172703 34 284 0.0 2.0 0.00 0.14 0.05 93 1004.4
20260506171803 34 300 1.0 4.0 0.00 0.14 0.05 93 1004.0
20260506170903 34 289 0.0 4.0 0.00 0.14 0.05 93 1004.1
20260506170004 34 13 0.0 3.0 0.00 0.14 0.05 93 1004.4
20260506165618 34 336 0.0 1.0 0.00 0.14 0.05 93 1004.3
20260506164503 34 46 0.0 2.0 0.00 0.14 0.05 93 1004.2
20260506163817 34 256 0.0 3.0 0.00 0.14 0.05 93 1004.0
20260506162703 34 266 1.0 5.0 0.01 0.14 0.05 93 1003.3
20260506161803 34 279 1.0 4.0 0.01 0.14 0.05 93 1002.7
20260506160903 34 293 1.0 6.0 0.01 0.14 0.05 93 1002.6
20260506160003 34 286 1.0 7.0 0.01 0.14 0.05 94 1002.6
20260506155404 34 260 2.0 7.0 0.01 0.14 0.05 94 1002.3
20260506154503 33 139 5.0 20.0 0.01 0.14 0.05 94 1002.1
20260506153603 33 135 10.0 17.0 0.01 0.14 0.05 95 1002.0
20260506152703 33 149 7.0 14.0 0.00 0.13 0.04 95 1002.2
20260506151803 33 144 6.0 12.0 0.00 0.13 0.04 95 1002.1
20260506150903 32 144 7.0 16.0 0.00 0.13 0.04 95 1001.9
20260506150004 32 142 7.0 11.0 0.00 0.13 0.04 95 1001.7
20260506145403 32 140 7.0 11.0 0.00 0.13 0.04 95 1001.8
20260506144717 32 137 7.0 12.0 0.00 0.13 0.04 95 1001.8
20260506143604 32 136 8.0 13.0 0.00 0.13 0.04 95 1001.8
20260506142917 32 140 6.0 13.0 0.00 0.13 0.04 95 1001.8
20260506141803 32 141 4.0 8.0 0.00 0.13 0.04 95 1001.8
20260506140903 32 139 5.0 10.0 0.00 0.13 0.04 95 1001.4
20260506140004 32 130 6.0 10.0 0.00 0.13 0.04 95 1001.4
20260506135617 32 126 6.0 10.0 0.00 0.13 0.04 95 1001.5
20260506134503 32 132 4.0 9.0 0.00 0.13 0.04 94 1001.2
20260506133818 32 139 6.0 10.0 0.00 0.13 0.04 95 1001.0
20260506132703 33 147 6.0 12.0 0.00 0.13 0.04 94 1000.7
20260506131804 33 151 5.0 10.0 0.00 0.13 0.04 94 1000.6
20260506130903 33 146 4.0 9.0 0.01 0.13 0.04 94 1000.5
20260506130003 33 148 4.0 8.0 0.01 0.13 0.04 94 1000.2
20260506125403 33 156 3.0 8.0 0.01 0.13 0.04 94 1000.1
20260506124503 33 158 4.0 8.0 0.01 0.13 0.04 94 999.7
20260506123603 33 153 6.0 11.0 0.01 0.13 0.04 94 999.5
20260506122704 33 148 6.0 12.0 0.02 0.13 0.04 94 999.3
20260506121803 33 152 6.0 13.0 0.02 0.13 0.04 93 999.2
20260506121117 33 152 6.0 11.0 0.03 0.13 0.04 93 999.1
20260506120003 34 152 6.0 12.0 0.02 0.12 0.03 93 999.0
20260506115403 34 155 5.0 12.0 0.02 0.12 0.03 93 998.9
20260506114503 34 153 6.0 13.0 0.02 0.12 0.03 93 998.7
20260506113603 35 166 4.0 10.0 0.02 0.12 0.03 93 998.4
20260506112703 35 170 3.0 11.0 0.01 0.11 0.02 93 998.4
20260506112018 35 178 3.0 8.0 0.01 0.11 0.02 93 998.3
20260506110903 35 187 3.0 7.0 0.00 0.10 0.01 94 998.0
20260506110003 35 168 3.0 9.0 0.00 0.10 0.01 94 997.7
20260506105403 35 163 4.0 9.0 0.00 0.10 0.01 94 997.7
20260506104503 35 163 4.0 9.0 0.00 0.10 0.01 94 997.6
20260506103603 35 164 5.0 11.0 0.00 0.10 0.01 94 997.6
20260506102703 35 158 4.0 9.0 0.00 0.10 0.01 94 997.5
20260506101803 36 153 5.0 9.0 0.00 0.10 0.01 94 997.5
20260506100903 36 146 6.0 12.0 0.00 0.10 0.01 94 997.4
20260506100004 36 153 5.0 14.0 0.00 0.10 0.01 94 997.3
20260506095403 36 162 3.0 8.0 0.00 0.10 0.01 94 997.3
20260506094503 36 155 3.0 10.0 0.00 0.10 0.01 94 997.3
20260506093603 36 157 4.0 10.0 0.00 0.10 0.01 94 997.2
20260506092703 36 158 5.0 9.0 0.00 0.10 0.01 94 997.0
20260506091803 36 155 4.0 9.0 0.00 0.10 0.01 94 996.9
20260506091118 36 161 3.0 7.0 0.00 0.10 0.01 94 996.9
20260506090003 36 166 3.0 6.0 0.00 0.10 0.01 94 996.9
20260506085403 37 175 3.0 6.0 0.00 0.10 0.01 94 996.9
20260506084504 37 193 3.0 6.0 0.00 0.10 0.01 94 997.0
20260506083603 37 172 2.0 5.0 0.00 0.10 0.01 94 997.0
20260506082703 36 148 3.0 5.0 0.00 0.10 0.01 94 996.8